Taylorville, IL

5:44 AM CDT on July 25, 2017 (GMT -0500)
Taylorville Municipal

Weather History for KTAZ - January, 2014

Change the Weather History Date:

Wednesday, January 8, 2014

  Actual Average (KSPI) Record (KSPI)
Temperature  
Mean Temperature 14 °F -  
Max Temperature 19 °F 28 °F 62 °F (1965)
Min Temperature 8 °F 14 °F -11 °F (1970)
Degree Days  
Heating Degree Days 52    
Moisture  
Dew Point 10 °F    
Average Humidity 78    
Maximum Humidity 92    
Minimum Humidity 68    
Precipitation  
Precipitation 0.00 in - - ()
Sea Level Pressure  
Sea Level Pressure 30.37 in    
Wind  
Wind Speed 6 mph (NNE)    
Max Wind Speed 9 mph    
Max Gust Speed -    
Visibility 10 miles    
Events      
Averages and records for this station are not official NWS values.
T = Trace of Precipitation, MM = Missing Value Source: NWS Daily Summary

Daily Weather History Graph

Daily Weather History Graph

Search for Another Location

Airport or City:

Trip Planner

Search our weather history database for the weather conditions in past years. The results will help you decide how hot, cold, wet, or windy it might be!

Date:

Astronomy

Jan. 08, 2014 Rise Set
Actual Time 7:17 AM CST 4:50 PM CST
Civil Twilight 6:47 AM CST 5:20 PM CST
Nautical Twilight 6:14 AM CST 5:53 PM CST
Astronomical Twilight 5:42 AM CST 6:26 PM CST
Moon 11:42 AM CST (1/8) 12:24 AM CST (1/8)
Length of Visible Light 10h 32m
Length of Day
9h 32m
First Quarter, 56% of the Moon is Illuminated
Jan 8
First Quarter
Jan 15
Full
Jan 23
Last Quarter
Jan 30
New
Feb 6
First Quarter

Hourly Weather History & Observations

Time (CST) Temp. Windchill Dew Point Humidity Pressure Visibility Wind Dir Wind Speed Gust Speed Precip Events Conditions
12:15 AM 14.0 °F 2.0 °F 8.6 °F 79% 30.23 in 10.0 mi South 9.2 mph - N/A   Clear
12:35 AM 14.0 °F 2.9 °F 8.6 °F 79% 30.23 in 10.0 mi SSW 8.1 mph - N/A   Clear
12:55 AM 12.2 °F 2.9 °F 8.6 °F 85% 30.24 in 10.0 mi SSW 5.8 mph - N/A   Clear
1:15 AM 12.2 °F 2.9 °F 8.6 °F 85% 30.24 in 10.0 mi South 5.8 mph - N/A   Clear
1:35 AM 12.2 °F 6.1 °F 8.6 °F 85% 30.25 in 10.0 mi South 3.5 mph - N/A   Clear
1:55 AM 12.2 °F 6.1 °F 8.6 °F 85% 30.26 in 10.0 mi SSW 3.5 mph - N/A   Clear
2:15 AM 12.2 °F 6.1 °F 8.6 °F 85% 30.26 in 10.0 mi South 3.5 mph - N/A   Mostly Cloudy
2:35 AM 12.2 °F 4.3 °F 8.6 °F 85% 30.27 in 10.0 mi SSW 4.6 mph - N/A   Mostly Cloudy
2:55 AM 14.0 °F 5.1 °F 10.4 °F 86% 30.27 in 10.0 mi South 5.8 mph - N/A   Overcast
3:15 AM 15.8 °F 8.6 °F 10.4 °F 79% 30.27 in 10.0 mi SSW 4.6 mph - N/A   Overcast
3:35 AM 15.8 °F 10.2 °F 12.2 °F 86% 30.27 in 10.0 mi SSW 3.5 mph - N/A   Overcast
3:55 AM 17.6 °F - 12.2 °F 79% 30.28 in 10.0 mi Calm Calm - N/A   Overcast
4:15 AM 15.8 °F 10.2 °F 10.4 °F 79% 30.28 in 10.0 mi WSW 3.5 mph - N/A   Mostly Cloudy
4:35 AM 14.0 °F 8.2 °F 10.4 °F 86% 30.28 in 10.0 mi NW 3.5 mph - N/A   Mostly Cloudy
4:55 AM 15.8 °F - 12.2 °F 86% 30.29 in 10.0 mi Calm Calm - N/A   Overcast
5:15 AM 17.6 °F - 12.2 °F 79% 30.29 in 10.0 mi Calm Calm - N/A   Overcast
5:35 AM 17.6 °F - 12.2 °F 79% 30.30 in 10.0 mi Calm Calm - N/A   Mostly Cloudy
5:55 AM 17.6 °F 12.3 °F 12.2 °F 79% 30.31 in 10.0 mi WNW 3.5 mph - N/A   Mostly Cloudy
6:15 AM 17.6 °F 12.3 °F 12.2 °F 79% 30.31 in 10.0 mi NNW 3.5 mph - N/A   Mostly Cloudy
6:35 AM 15.8 °F 10.2 °F 12.2 °F 86% 30.31 in 10.0 mi NW 3.5 mph - N/A   Mostly Cloudy
6:55 AM 17.6 °F 10.7 °F 12.2 °F 79% 30.32 in 10.0 mi NNW 4.6 mph - N/A   Mostly Cloudy
7:15 AM 15.8 °F 7.2 °F 8.6 °F 73% 30.32 in 10.0 mi North 5.8 mph - N/A   Overcast
7:35 AM 15.8 °F 8.6 °F 10.4 °F 79% 30.33 in 10.0 mi North 4.6 mph - N/A   Overcast
7:55 AM 15.8 °F 7.2 °F 10.4 °F 79% 30.35 in 10.0 mi North 5.8 mph - N/A   Overcast
8:15 AM 15.8 °F 5.1 °F 8.6 °F 73% 30.35 in 10.0 mi North 8.1 mph - N/A   Overcast
8:35 AM 15.8 °F 7.2 °F 8.6 °F 73% 30.36 in 10.0 mi North 5.8 mph - N/A   Overcast
8:55 AM 15.8 °F 8.6 °F 8.6 °F 73% 30.38 in 10.0 mi North 4.6 mph - N/A   Mostly Cloudy
9:15 AM 17.6 °F 9.3 °F 8.6 °F 68% 30.39 in 10.0 mi North 5.8 mph - N/A   Overcast
9:35 AM 17.6 °F 10.7 °F 8.6 °F 68% 30.41 in 10.0 mi NNE 4.6 mph - N/A   Overcast
9:55 AM 17.6 °F 8.2 °F 10.4 °F 73% 30.41 in 10.0 mi North 6.9 mph - N/A   Overcast
10:15 AM 17.6 °F 7.3 °F 10.4 °F 73% 30.41 in 10.0 mi North 8.1 mph - N/A   Overcast
10:35 AM 17.6 °F 7.3 °F 10.4 °F 73% 30.39 in 10.0 mi NNE 8.1 mph - N/A   Mostly Cloudy
10:55 AM 17.6 °F 9.3 °F 10.4 °F 73% 30.40 in 10.0 mi North 5.8 mph - N/A   Mostly Cloudy
11:15 AM 17.6 °F 8.2 °F 10.4 °F 73% 30.39 in 10.0 mi North 6.9 mph - N/A   Mostly Cloudy
11:35 AM 17.6 °F 8.2 °F 10.4 °F 73% 30.38 in 10.0 mi North 6.9 mph - N/A   Overcast
11:55 AM 17.6 °F 6.4 °F 10.4 °F 73% 30.37 in 10.0 mi North 9.2 mph - N/A   Overcast
12:15 PM 17.6 °F 8.2 °F 10.4 °F 73% 30.37 in 10.0 mi NNE 6.9 mph - N/A   Overcast
12:35 PM 17.6 °F 7.3 °F 10.4 °F 73% 30.38 in 10.0 mi North 8.1 mph - N/A   Overcast
12:55 PM 17.6 °F 8.2 °F 12.2 °F 79% 30.37 in 10.0 mi NNE 6.9 mph - N/A   Mostly Cloudy
1:15 PM 19.4 °F 9.5 °F 10.4 °F 68% 30.36 in 10.0 mi NNE 8.1 mph - N/A   Scattered Clouds
1:35 PM 19.4 °F 10.4 °F 12.2 °F 74% 30.37 in 10.0 mi North 6.9 mph - N/A   Clear
1:55 PM 19.4 °F 10.4 °F 12.2 °F 74% 30.37 in 10.0 mi NNE 6.9 mph - N/A   Scattered Clouds
2:15 PM 19.4 °F 11.5 °F 12.2 °F 74% 30.39 in 10.0 mi North 5.8 mph - N/A   Clear
2:35 PM 19.4 °F 10.4 °F 10.4 °F 68% 30.40 in 10.0 mi North 6.9 mph - N/A   Clear
2:55 PM 19.4 °F 11.5 °F 12.2 °F 74% 30.40 in 10.0 mi North 5.8 mph - N/A   Scattered Clouds
3:15 PM 19.4 °F 11.5 °F 10.4 °F 68% 30.41 in 10.0 mi North 5.8 mph - N/A   Mostly Cloudy
3:35 PM 19.4 °F 11.5 °F 12.2 °F 74% 30.41 in 10.0 mi North 5.8 mph - N/A   Scattered Clouds
3:55 PM 19.4 °F 8.6 °F 12.2 °F 74% 30.41 in 10.0 mi North 9.2 mph - N/A   Mostly Cloudy
4:15 PM 19.4 °F 9.5 °F 12.2 °F 74% 30.41 in 10.0 mi North 8.1 mph - N/A   Overcast
4:35 PM 19.4 °F 10.4 °F 12.2 °F 74% 30.42 in 10.0 mi North 6.9 mph - N/A   Overcast
4:55 PM 19.4 °F 10.4 °F 12.2 °F 74% 30.42 in 10.0 mi NNE 6.9 mph - N/A   Overcast
5:15 PM 17.6 °F 6.4 °F 10.4 °F 73% 30.42 in 10.0 mi NNE 9.2 mph - N/A   Overcast
5:35 PM 17.6 °F 7.3 °F 10.4 °F 73% 30.42 in 10.0 mi NNE 8.1 mph - N/A   Scattered Clouds
5:55 PM 17.6 °F 7.3 °F 10.4 °F 73% 30.43 in 10.0 mi NNE 8.1 mph - N/A   Clear
6:15 PM 15.8 °F 5.1 °F 10.4 °F 79% 30.43 in 10.0 mi NNE 8.1 mph - N/A   Clear
6:35 PM 15.8 °F 5.1 °F 8.6 °F 73% 30.43 in 10.0 mi NNE 8.1 mph - N/A   Clear
6:55 PM 14.0 °F 3.9 °F 8.6 °F 79% 30.43 in 10.0 mi NNE 6.9 mph - N/A   Clear
7:15 PM 14.0 °F 5.1 °F 8.6 °F 79% 30.44 in 10.0 mi NNE 5.8 mph - N/A   Clear
7:35 PM 14.0 °F 2.9 °F 8.6 °F 79% 30.44 in 10.0 mi NNE 8.1 mph - N/A   Scattered Clouds
7:55 PM 14.0 °F 5.1 °F 8.6 °F 79% 30.44 in 10.0 mi NE 5.8 mph - N/A   Mostly Cloudy
8:15 PM 14.0 °F - 8.6 °F 79% 30.46 in 10.0 mi Calm Calm - N/A   Scattered Clouds
8:35 PM 12.2 °F - 8.6 °F 85% 30.47 in 10.0 mi Calm Calm - N/A   Clear
8:55 PM 12.2 °F - 8.6 °F 85% 30.47 in 10.0 mi Calm Calm - N/A   Clear
9:15 PM 8.6 °F - 5.0 °F 85% 30.47 in 10.0 mi Calm Calm - N/A   Clear
9:35 PM 10.4 °F 4.0 °F 8.6 °F 92% 30.47 in 10.0 mi ENE 3.5 mph - N/A   Clear
9:55 PM 12.2 °F 2.9 °F 8.6 °F 85% 30.46 in 10.0 mi NE 5.8 mph - N/A   Mostly Cloudy
10:15 PM 14.0 °F 5.1 °F 10.4 °F 86% 30.47 in 10.0 mi NE 5.8 mph - N/A   Mostly Cloudy
10:35 PM 14.0 °F 3.9 °F 10.4 °F 86% 30.46 in 10.0 mi ENE 6.9 mph - N/A   Scattered Clouds
10:55 PM 14.0 °F 6.5 °F 10.4 °F 86% 30.47 in 10.0 mi ENE 4.6 mph - N/A   Scattered Clouds
11:15 PM 14.0 °F 6.5 °F 10.4 °F 86% 30.47 in 10.0 mi East 4.6 mph - N/A   Scattered Clouds
11:35 PM 14.0 °F 5.1 °F 10.4 °F 86% 30.46 in 10.0 mi ENE 5.8 mph - N/A   Clear
11:55 PM 14.0 °F 3.9 °F 10.4 °F 86% 30.46 in 10.0 mi ENE 6.9 mph - N/A   Clear